Bellaire, MI

11:38 PM EST on November 17, 2019 (GMT -0500)
Antrim County

Weather History for KACB - October, 2019

Change the Weather History Date:

Monday, October 21, 2019

  Actual Average (KCVX) Record (KCVX)
Temperature  
Mean Temperature 52 °F -  
Max Temperature 61 °F 55 °F 72 °F (2017)
Min Temperature 42 °F 43 °F 30 °F (2005)
Degree Days  
Heating Degree Days 14    
Growing Degree Days 2 (Base 50)    
Moisture  
Dew Point 50 °F    
Average Humidity 83    
Maximum Humidity 96    
Minimum Humidity 66    
Precipitation  
Precipitation 0.00 in - - ()
Sea Level Pressure  
Sea Level Pressure 29.75 in    
Wind  
Wind Speed 6 mph ()    
Max Wind Speed 23 mph    
Max Gust Speed 39 mph    
Visibility 9.3 miles    
Events Rain    
Averages and records for this station are not official NWS values.
T = Trace of Precipitation, MM = Missing Value Source: Averaged Metar Reports

Daily Weather History Graph

Daily Weather History Graph

Search for Another Location

Airport or City:

Astronomy

Oct. 21, 2019 Rise Set
Actual Time 8:04 AM EDT 6:46 PM EDT
Civil Twilight 7:34 AM EDT 7:15 PM EDT
Nautical Twilight 7:00 AM EDT 7:50 PM EDT
Astronomical Twilight 6:26 AM EDT 8:23 PM EDT
Moon No Moon Rise 3:30 PM EDT (10/21)
Length of Visible Light 11h 41m
Length of Day
10h 42m
Waning Gibbous, 48% of the Moon is Illuminated
Oct 21
Waning Gibbous
Oct 27
New
Nov 4
First Quarter
Nov 12
Full
Nov 19
Last Quarter

Hourly Weather History & Observations

Time (EDT) Temp. Windchill Dew Point Humidity Pressure Visibility Wind Dir Wind Speed Gust Speed Precip Events Conditions
12:15 AM 42.6 °F - 41.4 °F 95% 30.00 in 4.0 mi Calm Calm - N/A   Clear
12:16 AM 42.6 °F - 41.4 °F 95% 30.00 in 5.0 mi Calm Calm - N/A   Clear
12:39 AM 44.6 °F - 43.3 °F 95% 30.00 in 7.0 mi Calm Calm - N/A   Clear
12:57 AM 45.1 °F 43.7 °F 44.1 °F 96% 30.00 in 7.0 mi North 3.5 mph - N/A   Clear
1:15 AM 48.6 °F - 47.3 °F 95% 30.00 in 10.0 mi Calm Calm - N/A   Clear
1:16 AM 48.6 °F - 47.3 °F 95% 30.00 in 10.0 mi Calm Calm - N/A   Clear
1:35 AM 48.0 °F - 46.2 °F 93% 30.00 in 10.0 mi NNE 3.5 mph - N/A   Clear
1:55 AM 48.6 °F - 46.9 °F 94% 29.99 in 10.0 mi Calm Calm - N/A   Clear
2:18 AM 48.7 °F - 46.9 °F 93% 29.99 in 10.0 mi NNE 3.5 mph - N/A   Clear
2:36 AM 47.7 °F - 45.7 °F 93% 29.99 in 7.0 mi Calm Calm - N/A   Clear
2:55 AM 47.3 °F - 45.5 °F 93% 29.99 in 10.0 mi NNE 3.5 mph - N/A   Clear
3:15 AM 46.4 °F - 44.2 °F 92% 30.00 in 10.0 mi Calm Calm - N/A   Clear
3:39 AM 47.5 °F - 45.1 °F 92% 29.99 in 10.0 mi NNE 3.5 mph - N/A   Clear
3:57 AM 47.5 °F - 45.5 °F 93% 29.98 in 10.0 mi NNE 3.5 mph - N/A   Clear
4:35 AM 47.7 °F - 45.5 °F 92% 29.97 in 10.0 mi NE 4.6 mph - N/A   Clear
4:55 AM 49.3 °F - 46.6 °F 90% 29.97 in 10.0 mi ENE 4.6 mph - N/A   Clear
5:00 AM 50.0 °F - 46.6 °F 88% 29.97 in 10.0 mi ENE 4.6 mph - N/A   Clear
5:18 AM 50.7 °F - 46.6 °F 86% 29.97 in 10.0 mi Calm Calm - N/A   Clear
5:36 AM 50.4 °F - 46.2 °F 86% 29.97 in 10.0 mi NE 3.5 mph - N/A   Clear
5:55 AM 50.9 °F - 46.4 °F 85% 29.96 in 10.0 mi Calm Calm - N/A   Clear
5:56 AM 50.9 °F - 46.4 °F 85% 29.96 in 10.0 mi Calm Calm - N/A   Clear
6:15 AM 50.9 °F - 46.8 °F 86% 29.95 in 10.0 mi ENE 4.6 mph - N/A   Clear
6:16 AM 50.9 °F - 46.9 °F 86% 29.95 in 10.0 mi ENE 3.5 mph - N/A   Clear
6:39 AM 50.9 °F - 46.9 °F 86% 29.95 in 10.0 mi East 5.8 mph - N/A   Clear
6:57 AM 50.9 °F - 46.6 °F 85% 29.94 in 10.0 mi East 5.8 mph - N/A   Clear
7:15 AM 50.9 °F - 46.4 °F 85% 29.94 in 10.0 mi ENE 5.8 mph - N/A   Clear
7:35 AM 50.9 °F - 46.0 °F 83% 29.92 in 10.0 mi East 6.9 mph - N/A   Clear
7:36 AM 50.7 °F - 46.0 °F 84% 29.92 in 10.0 mi East 6.9 mph - N/A   Clear
7:55 AM 50.4 °F - 45.7 °F 84% 29.91 in 10.0 mi East 5.8 mph - N/A   Clear
8:00 AM 50.4 °F - 45.7 °F 84% 29.91 in 10.0 mi ENE 6.9 mph - N/A   Clear
8:18 AM 50.2 °F - 45.7 °F 85% 29.91 in 10.0 mi East 5.8 mph - N/A   Scattered Clouds
8:36 AM 50.4 °F - 45.5 °F 83% 29.89 in 10.0 mi East 5.8 mph - N/A   Mostly Cloudy
8:55 AM 50.9 °F - 45.7 °F 82% 29.87 in 10.0 mi East 9.2 mph 17.3 mph N/A   Overcast
9:15 AM 51.4 °F - 45.9 °F 81% 29.87 in 10.0 mi East 10.4 mph 17.3 mph N/A   Mostly Cloudy
9:16 AM 51.4 °F - 45.9 °F 81% 29.87 in 10.0 mi East 10.4 mph 17.3 mph N/A   Mostly Cloudy
9:39 AM 52.2 °F - 46.0 °F 80% 29.87 in 10.0 mi East 11.5 mph 18.4 mph N/A   Scattered Clouds
9:57 AM 52.7 °F - 46.4 °F 79% 29.88 in 10.0 mi East 11.5 mph 17.3 mph N/A   Clear
10:15 AM 53.2 °F - 46.8 °F 79% 29.85 in 10.0 mi East 6.9 mph - N/A   Clear
10:35 AM 54.1 °F - 47.3 °F 78% 29.85 in 10.0 mi East 8.1 mph 16.1 mph N/A   Clear
10:55 AM 54.9 °F - 47.7 °F 77% 29.85 in 10.0 mi East 10.4 mph 16.1 mph N/A   Mostly Cloudy
10:59 AM 55.0 °F - 47.8 °F 77% 29.84 in 10.0 mi East 11.5 mph 16.1 mph N/A   Mostly Cloudy
11:17 AM 55.4 °F - 48.2 °F 77% 29.84 in 10.0 mi ESE 10.4 mph 19.6 mph N/A   Overcast
11:35 AM 55.9 °F - 48.2 °F 75% 29.80 in 10.0 mi East 9.2 mph 17.3 mph N/A   Overcast
11:55 AM 56.7 °F - 48.0 °F 73% 29.77 in 10.0 mi East 8.1 mph 19.6 mph N/A   Overcast
11:56 AM 56.7 °F - 48.0 °F 73% 29.77 in 10.0 mi East 10.4 mph 19.6 mph N/A   Overcast
12:15 PM 57.4 °F - 48.2 °F 71% 29.76 in 10.0 mi East 10.4 mph 16.1 mph N/A   Mostly Cloudy
12:38 PM 58.1 °F - 48.4 °F 70% 29.75 in 10.0 mi East 9.2 mph - N/A   Clear
12:56 PM 58.1 °F - 48.4 °F 70% 29.73 in 10.0 mi East 12.7 mph 19.6 mph N/A   Scattered Clouds
1:15 PM 58.3 °F - 48.6 °F 70% 29.70 in 10.0 mi East 6.9 mph - N/A   Clear
1:16 PM 58.3 °F - 48.6 °F 70% 29.70 in 10.0 mi East 9.2 mph - N/A   Clear
1:35 PM 59.9 °F - 48.9 °F 67% 29.68 in 10.0 mi East 10.4 mph 23.0 mph N/A   Clear
1:59 PM 60.8 °F - 49.5 °F 66% 29.65 in 10.0 mi ESE 16.1 mph 24.2 mph N/A   Mostly Cloudy
2:17 PM 60.4 °F - 50.0 °F 68% 29.64 in 10.0 mi ESE 11.5 mph 23.0 mph N/A   Overcast
2:35 PM 60.4 °F - 50.5 °F 70% 29.64 in 10.0 mi ESE 16.1 mph 25.3 mph N/A   Overcast
2:36 PM 60.4 °F - 50.7 °F 70% 29.63 in 10.0 mi SE 19.6 mph 25.3 mph N/A   Overcast
2:55 PM 59.7 °F - 53.2 °F 79% 29.61 in 10.0 mi ESE 17.3 mph 28.8 mph N/A Rain Light Rain
3:15 PM 58.6 °F - 54.0 °F 84% 29.55 in 7.0 mi ESE 17.3 mph 31.1 mph N/A Rain Light Rain
3:38 PM 59.9 °F - 54.5 °F 82% 29.57 in 10.0 mi SE 18.4 mph 31.1 mph N/A   Overcast
3:56 PM 61.0 °F - 53.8 °F 77% 29.55 in 10.0 mi SE 20.7 mph 39.1 mph N/A   Overcast
4:15 PM 61.2 °F - 53.1 °F 75% 29.55 in 10.0 mi SE 23.0 mph 32.2 mph N/A   Overcast
4:35 PM 60.8 °F - 53.4 °F 77% 29.53 in 7.0 mi ESE 20.7 mph 38.0 mph N/A Rain Light Rain
4:36 PM 60.6 °F - 53.4 °F 77% 29.53 in 7.0 mi SE 23.0 mph 36.8 mph N/A Rain Light Rain
4:55 PM 59.7 °F - 53.8 °F 81% 29.54 in 7.0 mi ESE 16.1 mph 33.4 mph N/A Rain Light Rain
5:18 PM 60.4 °F - 53.8 °F 79% 29.53 in 10.0 mi SE 18.4 mph 35.7 mph N/A   Overcast
5:35 PM 60.1 °F - 54.0 °F 80% 29.53 in 7.0 mi SE 18.4 mph 29.9 mph N/A Rain Light Rain
5:55 PM 59.9 °F - 53.8 °F 80% 29.52 in 7.0 mi SE 18.4 mph 32.2 mph N/A   Overcast
5:56 PM 59.7 °F - 53.8 °F 81% 29.52 in 7.0 mi SE 19.6 mph 32.2 mph N/A   Overcast
6:15 PM 59.9 °F - 53.8 °F 80% 29.52 in 7.0 mi SE 17.3 mph 27.6 mph N/A   Overcast
6:39 PM 58.8 °F - 54.7 °F 86% 29.52 in 3.0 mi SE 12.7 mph 23.0 mph N/A   Overcast
6:57 PM 59.0 °F - 54.9 °F 86% 29.51 in 7.0 mi SE 11.5 mph 25.3 mph N/A Rain Rain
7:15 PM 59.0 °F - 54.9 °F 86% 29.50 in 10.0 mi SE 20.7 mph 26.5 mph N/A Rain Light Rain
7:16 PM 59.0 °F - 54.9 °F 86% 29.50 in 10.0 mi SE 20.7 mph 26.5 mph N/A Rain Light Rain
7:35 PM 59.2 °F - 55.0 °F 86% 29.50 in 7.0 mi SE 18.4 mph 26.5 mph N/A Rain Light Rain
7:55 PM 59.0 °F - 55.0 °F 87% 29.49 in 10.0 mi SE 12.7 mph 20.7 mph N/A   Light Drizzle
8:18 PM 59.4 °F - 55.0 °F 86% 29.49 in 10.0 mi SE 12.7 mph 20.7 mph N/A   Mostly Cloudy
8:35 PM 59.7 °F - 55.0 °F 84% 29.48 in 10.0 mi SE 13.8 mph 19.6 mph N/A   Mostly Cloudy
8:55 PM 60.4 °F - 54.7 °F 81% 29.49 in 10.0 mi SSE 8.1 mph 17.3 mph N/A   Scattered Clouds
9:15 PM 60.4 °F - 55.4 °F 83% 29.49 in 10.0 mi SSE 9.2 mph 17.3 mph N/A   Mostly Cloudy
9:39 PM 60.8 °F - 55.8 °F 83% 29.48 in 10.0 mi SSE 9.2 mph 19.6 mph N/A   Mostly Cloudy
9:57 PM 60.4 °F - 55.8 °F 85% 29.47 in 10.0 mi SSE 6.9 mph - N/A   Scattered Clouds
10:15 PM 60.4 °F - 55.6 °F 84% 29.47 in 10.0 mi SSE 9.2 mph - N/A   Mostly Cloudy
10:35 PM 60.8 °F - 55.8 °F 83% 29.48 in 10.0 mi SSE 9.2 mph - N/A   Overcast
10:55 PM 60.4 °F - 55.8 °F 85% 29.48 in 10.0 mi South 8.1 mph - N/A   Mostly Cloudy
11:18 PM 60.8 °F - 55.6 °F 83% 29.48 in 10.0 mi SSW 3.5 mph - N/A   Mostly Cloudy
11:36 PM 60.3 °F - 55.6 °F 85% 29.48 in 10.0 mi South 3.5 mph - N/A   Overcast
11:55 PM 60.1 °F - 55.4 °F 85% 29.49 in 10.0 mi Calm Calm - N/A   Mostly Cloudy
11:56 PM 60.1 °F - 55.4 °F 85% 29.49 in 10.0 mi Calm Calm - N/A   Mostly Cloudy